Hourly Data Report for October 27, 2015

All times are specified in Local Standard Time (LST). Add 1 hour to adjust for Daylight Saving Time where and when it is observed.

BAKER LAKE A
NUNAVUT

64°17'56.000" N
96°04'40.000" W
18.60 m
2300503
71926
YBK

Download Data

Hourly Data (October 2015)
Hourly Data Report for October 27, 2015
Temp Definition
°C
Dew Point Temp Definition
°C
Rel Hum Definition
%
Wind Dir Definition
10's deg

Wind Spd Definition
km/h
Visibility Definition
km
Stn Press Definition
kPa
Hmdx Definition


Wind Chill Definition


Weather Definition


TIME
00:00 Legend Double Dagger -15.4 -19.2 73 29 29 24.1 101.53   -26 Blowing Snow
01:00 Legend Double Dagger -16.3 -19.9 74 27 20 24.1 101.57   -26 Blowing Snow
02:00 Legend Double Dagger -16.4 -20.0 74 29 38 24.1 101.51   -29 Blowing Snow
03:00 Legend Double Dagger -16.2 -20.3 71 30 20 24.1 101.56   -26 Blowing Snow
04:00 Legend Double Dagger -18.0 -21.1 77 26 26 24.1 101.61   -29 Blowing Snow
05:00 Legend Double Dagger -17.3 -20.6 76 29 28 24.1 101.56   -29 Blowing Snow
06:00 Legend Double Dagger -18.5 -21.8 76 21 13 24.1 101.61   -27 Blowing Snow
07:00 Legend Double Dagger -17.0 -20.9 72 30 8 24.1 101.58   -23 LegendNANA
08:00 Legend Double Dagger -17.4 -21.2 73 33 12 32.2 101.53   -25 LegendNANA
09:00 Legend Double Dagger -16.1 -20.7 68 28 10 32.2 101.52   -23 Mostly Cloudy
10:00 Legend Double Dagger -16.4 -20.7 70 34 4 32.2 101.54   -19 LegendNANA
11:00 Legend Double Dagger -16.4 -20.0 74 12 4 32.2 101.56   -19 LegendNANA
12:00 Legend Double Dagger -15.7 -19.8 71 29 9 32.2 101.53   -22 Mostly Cloudy
13:00 Legend Double Dagger -16.0 -20.1 71 31 7 32.2 101.51   -21 LegendNANA
14:00 Legend Double Dagger -16.4 -20.0 74 14 4 32.2 101.52   -19 LegendNANA
15:00 Legend Double Dagger -16.0 -19.5 75 29 3 32.2 101.52   -18 Mostly Cloudy
16:00 Legend Double Dagger -17.2 -20.0 79 28 9 32.2 101.51   -23 LegendNANA
17:00 Legend Double Dagger -17.7 -20.7 78 30 10 32.2 101.47   -24 LegendNANA
18:00 Legend Double Dagger -18.6 -21.2 80 34 6 24.1 101.48   -23 Mainly Clear
19:00 Legend Double Dagger -18.1 -20.5 82 22 5 24.1 101.48   -22 LegendNANA
20:00 Legend Double Dagger -18.0 -20.7 80 28 12 24.1 101.46   -26 LegendNANA
21:00 Legend Double Dagger -18.6 -21.2 80 30 13 24.1 101.41   -27 Mainly Clear
22:00 Legend Double Dagger -18.2 -20.6 82 8 3 24.1 101.43   -21 LegendNANA
23:00 Legend Double Dagger -18.9 -21.0 84 36 3 24.1 101.43   -21 LegendNANA

Notes on Data Quality.

Legend

  • E = Estimated
  • M = Missing
  • NA = Not Available
  • ‡ = Partner data that is not subject to review by the National Climate Archives
Date modified: